This is the latest recevied weather packets stored in our database for station/object W5LND-10. If no packets are shown the sender has not sent any weather packets the latest 10 day(s).
| Time | Temp. | Humidity | Pressure | Rain* | Wind** | Luminosity | Snow |
|---|---|---|---|---|---|---|---|
| 1778007070 | 32.22° C | 20% | 1002.6 hPa | 0 mm | - | 1157 W/m² | - |
| 1778006770 | 31.67° C | 20% | 1002.7 hPa | 0 mm | - | 1176 W/m² | - |
| 1778006470 | 31.11° C | 20% | 1002.6 hPa | 0 mm | - | 1083 W/m² | - |
| 1778006170 | 31.11° C | 20% | 1002.8 hPa | 0 mm | - | 1100 W/m² | - |
| 1778005870 | 31.11° C | 20% | 1002.8 hPa | 0 mm | - | 1187 W/m² | - |
| 1778005570 | 31.11° C | 20% | 1002.7 hPa | 0 mm | - | 1187 W/m² | - |
| 1778005270 | 31.11° C | 21% | 1002.6 hPa | 0 mm | - | 1127 W/m² | - |
| 1778004970 | 31.11° C | 20% | 1002.7 hPa | 0 mm | - | 1141 W/m² | - |
| 1778004670 | 31.11° C | 21% | 1002.7 hPa | 0 mm | - | 1178 W/m² | - |
| 1778004370 | 31.11° C | 20% | 1002.8 hPa | 0 mm | - | 1116 W/m² | - |
| 1778004070 | 31.11° C | 21% | 1002.6 hPa | 0 mm | - | 1227 W/m² | - |
| 1778003770 | 31.11° C | 21% | 1003 hPa | 0 mm | - | 947 W/m² | - |
| 1778003470 | 31.11° C | 20% | 1003.1 hPa | 0 mm | - | 967 W/m² | - |
| 1778003170 | 31.67° C | 21% | 1002.8 hPa | 0 mm | - | 976 W/m² | - |
| 1778002870 | 31.11° C | 23% | 1002.9 hPa | 0 mm | - | 1155 W/m² | - |
| 1778002570 | 30.56° C | 23% | 1003 hPa | 0 mm | - | 984 W/m² | - |
| 1778002270 | 30.56° C | 22% | 1003 hPa | 0 mm | - | 984 W/m² | - |
| 1778001970 | 30.56° C | 23% | 1003.1 hPa | 0 mm | - | 1076 W/m² | - |
| 1778001670 | 30° C | 24% | 1003.2 hPa | 0 mm | - | 1148 W/m² | - |
| 1778001370 | 30° C | 23% | 1003.2 hPa | 0 mm | - | 916 W/m² | - |
| 1778001070 | 30° C | 23% | 1003.2 hPa | 0 mm | - | 812 W/m² | - |
| 1778000770 | 29.44° C | 24% | 1003.1 hPa | 0 mm | - | 786 W/m² | - |
| 1778000470 | 29.44° C | 23% | 1003.2 hPa | 0 mm | - | 838 W/m² | - |
| 1778000170 | 29.44° C | 24% | 1003.2 hPa | 0 mm | - | 875 W/m² | - |
| 1777999870 | 28.89° C | 25% | 1003.1 hPa | 0 mm | - | 701 W/m² | - |
* Rain latest hour (hover to see other rain measurements)
** Current wind speed in m/s (hover to see current wind gust speed)